Location: Bavegemberg
(50.9500°N, 3.8833°E)
Time: 20:59:22
(UTC+00:00)

Cosmos 2074 Rocket - Pass Details

Date: 23 May 2024
Orbit: 966 x 986 km, 82.9° (Epoch: 16 June)

Event Time Altitude Azimuth Distance (km) Brightness Sun altitude
Exits shadow 02:48:45 - 188° (S) 3,468 6.4 -7.4°
Reaches altitude 10° 02:50:44 10° 189° (S) 2,714 5.8 -7.2°
Maximum altitude 02:56:58 87° 276° (W) 979 4.1 -6.5°
Drops below altitude 10° 03:03:14 10° 10° (N) 2,722 7.3 -5.8°
Sets 03:05:44 0° 10° (N) 3,671 8.0 -5.5°
